KLM313 LROP-LUKK

Flight info

Callsign KLM313
Flight time 0h 38m
Altitude 29000
Route DENAK DCT URELA DCT FOCSA DCT KENUX DCT BCU DCT BUSES
Aircraft B738/M-SDE2E3FGHIRWXY/LB1

Departure

Time 2026-05-07 16:54
Airport Bucharest Henri Coandă International Airport (LROP)

Arrival

Time 2026-05-07 17:33
Airport Chişinău International Airport (LUKK)
Time Latitude Longitude Altitude Speed Heading
2026-05-07 16:31 44.57125 26.08170 316 ft 0 kts 173°
2026-05-07 16:45 44.57136 26.08168 316 ft 3 kts 173°
2026-05-07 16:45 44.57156 26.08165 314 ft 3 kts 173°
2026-05-07 16:45 44.57173 26.08163 315 ft 3 kts 169°
2026-05-07 16:46 44.57189 26.08154 315 ft 3 kts 128°
2026-05-07 16:46 44.57196 26.08132 314 ft 3 kts 88°
2026-05-07 16:46 44.57195 26.08113 315 ft 1 kts 84°
2026-05-07 16:46 44.57194 26.08108 314 ft 0 kts 84°
2026-05-07 16:50 44.57194 26.08110 314 ft 2 kts 84°
2026-05-07 16:50 44.57195 26.08112 315 ft 0 kts 83°
2026-05-07 16:50 44.57196 26.08132 316 ft 5 kts 82°
2026-05-07 16:50 44.57204 26.08205 316 ft 7 kts 83°
2026-05-07 16:51 44.57211 26.08284 317 ft 9 kts 79°
2026-05-07 16:51 44.57225 26.08374 316 ft 9 kts 81°
2026-05-07 16:51 44.57240 26.08459 318 ft 9 kts 65°
2026-05-07 16:51 44.57292 26.08492 318 ft 9 kts 356°
2026-05-07 16:52 44.57353 26.08482 317 ft 9 kts 352°
2026-05-07 16:52 44.57413 26.08471 319 ft 9 kts 352°
2026-05-07 16:52 44.57472 26.08464 319 ft 9 kts 358°
2026-05-07 16:52 44.57507 26.08461 320 ft 0 kts 356°
2026-05-07 16:53 44.57508 26.08461 320 ft 3 kts 356°
2026-05-07 16:53 44.57574 26.08452 319 ft 13 kts 354°
2026-05-07 16:53 44.57635 26.08445 322 ft 8 kts
2026-05-07 16:53 44.57666 26.08497 322 ft 8 kts 82°
2026-05-07 16:54 44.57682 26.08700 320 ft 53 kts 83°
2026-05-07 16:54 44.57750 26.09584 315 ft 126 kts 84°
2026-05-07 16:54 44.57851 26.11081 398 ft 178 kts 85°
2026-05-07 16:54 44.57965 26.12879 1106 ft 192 kts 86°
2026-05-07 16:55 44.58106 26.14900 1449 ft 224 kts 86°
2026-05-07 16:55 44.58275 26.17228 1713 ft 256 kts 86°
2026-05-07 16:55 44.58493 26.19871 2114 ft 282 kts 80°
2026-05-07 16:55 44.59336 26.22289 3177 ft 277 kts 46°
2026-05-07 16:56 44.60907 26.23764 4159 ft 273 kts 22°
2026-05-07 16:56 44.62738 26.24553 4924 ft 276 kts 11°
2026-05-07 16:56 44.66519 26.25658 6437 ft 282 kts
2026-05-07 16:57 44.68451 26.26199 7155 ft 285 kts
2026-05-07 16:57 44.70404 26.26751 7893 ft 287 kts
2026-05-07 16:57 44.72374 26.27317 8629 ft 290 kts
2026-05-07 16:57 44.74357 26.27894 9371 ft 292 kts
2026-05-07 16:58 44.76370 26.28484 9987 ft 300 kts
2026-05-07 16:58 44.78450 26.29098 10362 ft 316 kts 10°
2026-05-07 16:58 44.80674 26.29756 10524 ft 337 kts 10°
2026-05-07 16:58 44.83042 26.30461 10696 ft 358 kts 10°
2026-05-07 16:59 44.85549 26.31212 10839 ft 378 kts 11°
2026-05-07 16:59 44.88177 26.32002 11083 ft 393 kts 11°
2026-05-07 16:59 44.90851 26.32809 11819 ft 390 kts 11°
2026-05-07 16:59 44.93467 26.33602 12904 ft 380 kts 11°
2026-05-07 17:00 44.96020 26.34377 13979 ft 370 kts 11°
2026-05-07 17:00 44.98489 26.35124 15040 ft 357 kts 11°
2026-05-07 17:00 45.00872 26.35847 16138 ft 344 kts 11°
2026-05-07 17:00 45.03194 26.36550 16983 ft 340 kts 11°
2026-05-07 17:01 45.05524 26.37256 17544 ft 345 kts 11°
2026-05-07 17:01 45.07849 26.37962 18101 ft 349 kts 10°
2026-05-07 17:01 45.10235 26.38686 18626 ft 352 kts 11°
2026-05-07 17:01 45.12641 26.39417 19152 ft 354 kts 11°
2026-05-07 17:02 45.15057 26.40152 19702 ft 356 kts 10°
2026-05-07 17:02 45.17482 26.40890 20237 ft 358 kts 10°
2026-05-07 17:02 45.19924 26.41633 20750 ft 360 kts 10°
2026-05-07 17:02 45.22385 26.42383 21254 ft 363 kts 10°
2026-05-07 17:03 45.24861 26.43139 21753 ft 365 kts 10°
2026-05-07 17:03 45.27358 26.43902 22250 ft 368 kts
2026-05-07 17:03 45.29864 26.44668 22748 ft 370 kts 10°
2026-05-07 17:03 45.32399 26.45444 23054 ft 375 kts 10°
2026-05-07 17:04 45.34990 26.46236 23048 ft 387 kts 10°
2026-05-07 17:04 45.37664 26.47054 23061 ft 398 kts 10°
2026-05-07 17:04 45.40375 26.47887 23064 ft 409 kts
2026-05-07 17:04 45.43197 26.48753 23069 ft 420 kts
2026-05-07 17:05 45.46090 26.49641 23061 ft 429 kts 10°
2026-05-07 17:05 45.49043 26.50549 23067 ft 438 kts 11°
2026-05-07 17:05 45.52053 26.51477 23062 ft 446 kts
2026-05-07 17:05 45.55117 26.52421 23049 ft 454 kts
2026-05-07 17:06 45.58221 26.53375 23056 ft 460 kts 10°
2026-05-07 17:06 45.61372 26.54353 23054 ft 466 kts
2026-05-07 17:06 45.64562 26.55346 23048 ft 471 kts 11°
2026-05-07 17:06 45.67774 26.56346 23031 ft 472 kts 11°
2026-05-07 17:07 45.70969 26.57346 23030 ft 469 kts 10°
2026-05-07 17:07 45.74159 26.58341 23025 ft 468 kts 10°
2026-05-07 17:07 45.77334 26.59323 23039 ft 467 kts 10°
2026-05-07 17:07 45.80511 26.60310 23035 ft 467 kts 11°
2026-05-07 17:08 45.83682 26.61299 23036 ft 467 kts
2026-05-07 17:08 45.86861 26.62290 23032 ft 467 kts
2026-05-07 17:08 45.89993 26.63268 23040 ft 467 kts 11°
2026-05-07 17:08 45.93177 26.64264 23034 ft 468 kts 11°
2026-05-07 17:09 45.96355 26.65259 23043 ft 469 kts 11°
2026-05-07 17:09 45.99554 26.66263 23024 ft 470 kts 10°
2026-05-07 17:09 46.02751 26.67264 23019 ft 471 kts 10°
2026-05-07 17:09 46.05950 26.68272 23014 ft 471 kts
2026-05-07 17:10 46.09153 26.69282 23017 ft 471 kts 10°
2026-05-07 17:10 46.12364 26.70295 23030 ft 472 kts 11°
2026-05-07 17:10 46.15572 26.71307 23017 ft 472 kts 11°
2026-05-07 17:10 46.18785 26.72322 23009 ft 473 kts 11°
2026-05-07 17:11 46.21996 26.73338 23005 ft 473 kts 11°
2026-05-07 17:11 46.25212 26.74356 23008 ft 473 kts 11°
2026-05-07 17:11 46.28423 26.75374 23005 ft 473 kts 11°
2026-05-07 17:11 46.31637 26.76394 23008 ft 473 kts 10°
2026-05-07 17:12 46.34847 26.77414 23007 ft 472 kts 11°
2026-05-07 17:12 46.38036 26.78430 22987 ft 460 kts 11°
2026-05-07 17:12 46.41107 26.79411 22920 ft 443 kts 10°
2026-05-07 17:12 46.44074 26.80358 22826 ft 430 kts 11°
2026-05-07 17:13 46.46947 26.81279 22698 ft 418 kts 12°
2026-05-07 17:13 46.49596 26.82771 22434 ft 415 kts 31°
2026-05-07 17:13 46.51812 26.85497 21702 ft 422 kts 49°
2026-05-07 17:13 46.53374 26.89102 21331 ft 418 kts 65°
2026-05-07 17:14 46.54598 26.92917 21454 ft 419 kts 65°
2026-05-07 17:14 46.55847 26.96785 21270 ft 427 kts 65°
2026-05-07 17:14 46.57123 27.00714 21007 ft 430 kts 65°
2026-05-07 17:14 46.58399 27.04625 20753 ft 425 kts 64°
2026-05-07 17:15 46.59660 27.08473 20498 ft 421 kts 65°
2026-05-07 17:15 46.60915 27.12299 20253 ft 417 kts 65°
2026-05-07 17:15 46.62161 27.16096 19985 ft 414 kts 65°
2026-05-07 17:15 46.63399 27.19872 19539 ft 412 kts 65°
2026-05-07 17:16 46.64628 27.23627 19075 ft 410 kts 66°
2026-05-07 17:16 46.65849 27.27362 18586 ft 408 kts 66°
2026-05-07 17:16 46.67050 27.31046 18047 ft 407 kts 65°
2026-05-07 17:16 46.68282 27.34822 17481 ft 406 kts 66°
2026-05-07 17:17 46.69470 27.38471 16964 ft 403 kts 66°
2026-05-07 17:17 46.70669 27.42158 16451 ft 401 kts 66°
2026-05-07 17:17 46.71858 27.45820 15945 ft 399 kts 66°
2026-05-07 17:17 46.73040 27.49464 15457 ft 397 kts 66°
2026-05-07 17:18 46.74215 27.53097 14962 ft 395 kts 67°
2026-05-07 17:18 46.75384 27.56716 14474 ft 393 kts 67°
2026-05-07 17:18 46.76541 27.60299 13966 ft 387 kts 67°
2026-05-07 17:18 46.77673 27.63811 13435 ft 378 kts 66°
2026-05-07 17:19 46.78780 27.67249 12928 ft 373 kts 67°
2026-05-07 17:19 46.79876 27.70663 12463 ft 371 kts 66°
2026-05-07 17:19 46.80970 27.74073 11979 ft 368 kts 66°
2026-05-07 17:19 46.82042 27.77419 11498 ft 360 kts 66°
2026-05-07 17:20 46.83095 27.80712 11073 ft 357 kts 65°
2026-05-07 17:20 46.84128 27.83944 10878 ft 344 kts 65°
2026-05-07 17:20 46.85119 27.87046 10719 ft 329 kts 65°
2026-05-07 17:20 46.86065 27.90014 10572 ft 315 kts 65°
2026-05-07 17:21 46.86970 27.92852 10441 ft 302 kts 65°
2026-05-07 17:21 46.87841 27.95593 10327 ft 295 kts 65°
2026-05-07 17:21 46.88691 27.98265 10220 ft 293 kts 65°
2026-05-07 17:21 46.89555 28.00985 10097 ft 290 kts 64°
2026-05-07 17:22 46.90388 28.03611 9888 ft 287 kts 64°
2026-05-07 17:22 46.91228 28.06259 9608 ft 286 kts 65°
2026-05-07 17:22 46.92059 28.08883 9327 ft 284 kts 65°
2026-05-07 17:22 46.92892 28.11497 9038 ft 283 kts 64°
2026-05-07 17:23 46.93751 28.14080 8744 ft 282 kts 63°
2026-05-07 17:23 46.94616 28.16648 8462 ft 281 kts 63°
2026-05-07 17:23 46.95475 28.19203 8181 ft 279 kts 63°
2026-05-07 17:23 46.96331 28.21755 7912 ft 278 kts 63°
2026-05-07 17:24 46.97182 28.24298 7628 ft 277 kts 63°
2026-05-07 17:24 46.98026 28.26826 7348 ft 276 kts 63°
2026-05-07 17:24 46.98871 28.29359 7007 ft 277 kts 63°
2026-05-07 17:24 46.99710 28.31879 6716 ft 273 kts 63°
2026-05-07 17:25 47.00535 28.34360 6428 ft 269 kts 63°
2026-05-07 17:25 47.01293 28.36754 6327 ft 254 kts 72°
2026-05-07 17:25 47.01401 28.39219 6182 ft 236 kts 103°
2026-05-07 17:25 47.00879 28.41406 6041 ft 221 kts 120°
2026-05-07 17:26 47.00094 28.43360 5516 ft 225 kts 126°
2026-05-07 17:26 46.99262 28.45272 5208 ft 222 kts 125°
2026-05-07 17:26 46.98443 28.47153 4991 ft 216 kts 124°
2026-05-07 17:26 46.97651 28.48986 4752 ft 211 kts 126°
2026-05-07 17:27 46.96891 28.50757 4622 ft 203 kts 125°
2026-05-07 17:27 46.96139 28.52519 4558 ft 205 kts 127°
2026-05-07 17:27 46.95386 28.54292 4435 ft 204 kts 126°
2026-05-07 17:27 46.94646 28.56030 4320 ft 197 kts 127°
2026-05-07 17:28 46.93924 28.57728 4045 ft 200 kts 127°
2026-05-07 17:28 46.93187 28.59464 3675 ft 201 kts 126°
2026-05-07 17:28 46.92469 28.61165 3507 ft 191 kts 123°
2026-05-07 17:28 46.92133 28.63059 3489 ft 199 kts 92°
2026-05-07 17:29 46.92198 28.65121 3296 ft 211 kts 92°
2026-05-07 17:29 46.92236 28.67282 2935 ft 210 kts 92°
2026-05-07 17:29 46.92278 28.69379 2585 ft 203 kts 94°
2026-05-07 17:29 46.92325 28.71370 2522 ft 191 kts 94°
2026-05-07 17:30 46.92391 28.73305 2497 ft 192 kts 93°
2026-05-07 17:30 46.92435 28.75219 2487 ft 188 kts 95°
2026-05-07 17:30 46.92472 28.77103 2246 ft 181 kts 95°
2026-05-07 17:30 46.92506 28.78924 2005 ft 178 kts 97°
2026-05-07 17:31 46.92539 28.80702 1770 ft 172 kts 97°
2026-05-07 17:31 46.92571 28.82416 1569 ft 167 kts 94°
2026-05-07 17:31 46.92603 28.84104 1347 ft 166 kts 94°
2026-05-07 17:31 46.92619 28.85771 1061 ft 160 kts 95°
2026-05-07 17:32 46.92652 28.87361 876 ft 156 kts 91°
2026-05-07 17:32 46.92706 28.88929 714 ft 153 kts 95°
2026-05-07 17:32 46.92718 28.90477 460 ft 150 kts 92°
2026-05-07 17:32 46.92742 28.91464 389 ft 141 kts 92°
2026-05-07 17:33 46.92767 28.92697 361 ft 99 kts 86°
2026-05-07 17:33 46.92785 28.93225 342 ft 7 kts 88°
2026-05-07 17:33 46.92789 28.93309 340 ft 10 kts 81°
2026-05-07 17:33 46.92828 28.93393 338 ft 11 kts 28°
2026-05-07 17:34 46.92899 28.93414 335 ft 10 kts 357°
2026-05-07 17:34 46.92970 28.93406 348 ft 10 kts 357°
2026-05-07 17:34 46.93016 28.93407 345 ft 10 kts
2026-05-07 17:34 46.93083 28.93425 348 ft 10 kts 10°
2026-05-07 17:35 46.93138 28.93478 356 ft 11 kts 66°
2026-05-07 17:35 46.93147 28.93602 350 ft 14 kts 96°
2026-05-07 17:35 46.93130 28.93740 354 ft 12 kts 95°
2026-05-07 17:35 46.93194 28.93803 357 ft 12 kts 11°
2026-05-07 17:36 46.93273 28.93816 356 ft 11 kts 359°
2026-05-07 17:36 46.93299 28.93729 358 ft 10 kts 269°
2026-05-07 17:36 46.93305 28.93630 351 ft 9 kts 283°
2026-05-07 17:36 46.93336 28.93589 353 ft 5 kts
2026-05-07 17:37 46.93360 28.93597 349 ft 0 kts